Theta_e
338 343 349 352 352 353 353 354 357 360 359 357 360 361 356 353 351 350 354 353 349 346 345 347 347 347 349 347 348 349 348 349 347 348 349 346 345 345 343 341 340 337 334 329 327 331 337 339 339 339 340 340 340 341 343 343 343 341 342 343 343 343 344 344 343 343 343 344 344 344 344 344 345 344 343 342 342 342 341 340 339 338 337 338 341 345 345 344 343 343 344 343 344 343 342 342 342
343 347 349 351 353 354 353 354 360 361 359 356 359 358 352 354 353 351 356 354 350 345 345 347 347 346 346 346 344 345 348 348 344 346 347 346 347 347 344 340 337 333 329 326 329 336 340 340 341 341 342 342 341 341 341 342 341 340 342 342 342 342 344 344 343 343 343 344 344 345 345 345 345 345 343 342 342 343 342 340 339 339 339 340 342 344 345 344 343 344 343 343 343 343 342 342 342
347 349 350 351 352 354 353 356 361 358 359 354 349 353 352 354 354 355 355 350 347 344 346 347 347 346 345 346 346 348 348 347 344 345 347 347 349 348 343 338 334 331 328 329 334 339 341 341 342 342 343 344 342 340 339 339 340 340 342 341 341 342 343 344 344 343 343 344 345 344 344 344 345 345 343 342 342 343 342 341 341 341 341 342 342 344 345 345 344 344 344 343 343 343 342 342 342
349 350 352 353 352 356 357 361 363 358 358 352 344 350 353 352 355 355 350 345 345 345 346 346 347 346 346 347 347 348 348 347 346 346 348 347 347 346 343 339 339 337 331 333 339 340 341 341 341 341 342 342 342 341 340 340 340 341 342 342 342 342 343 344 344 343 343 343 344 343 343 344 344 344 343 342 343 343 342 341 341 343 343 343 343 343 344 344 344 344 343 343 343 342 342 343 343
350 352 352 352 354 357 359 362 363 360 359 355 350 351 352 352 355 353 346 346 346 345 345 346 347 345 345 346 347 349 347 347 346 347 348 348 347 347 347 346 346 343 335 336 342 341 342 342 341 341 341 342 342 342 341 341 341 342 343 343 343 343 343 344 344 344 344 343 344 343 343 344 343 342 342 342 343 343 342 341 341 343 344 344 344 343 344 344 344 344 344 343 343 342 342 343 343
352 353 352 352 355 355 359 360 359 362 360 360 358 351 351 352 353 351 346 347 346 345 345 344 345 345 345 345 347 348 348 348 347 348 348 350 349 348 349 349 348 343 335 339 342 342 341 341 341 342 341 341 340 340 341 341 341 342 343 344 343 344 344 343 343 343 344 344 344 343 343 342 342 342 342 342 343 342 341 341 342 343 343 344 343 343 345 345 344 344 343 343 343 342 342 343 343
353 354 353 354 355 355 361 360 358 364 362 360 359 350 354 353 348 350 349 347 346 344 344 345 344 344 346 346 347 347 347 347 347 348 349 350 349 349 348 348 347 340 337 341 342 341 342 341 342 342 340 340 340 341 341 341 342 342 343 343 343 344 344 343 342 343 344 344 343 343 343 343 343 343 343 343 342 342 341 341 342 342 343 343 343 344 344 345 344 343 343 343 342 341 341 342 343
352 354 352 357 360 358 361 361 360 366 363 357 354 350 354 352 346 351 352 346 345 344 344 345 344 345 346 345 346 345 346 347 347 348 348 349 348 349 348 347 343 338 339 341 341 342 342 342 342 341 341 341 342 343 342 342 342 342 343 343 344 344 343 343 343 344 344 343 343 343 343 342 343 343 343 343 343 342 341 341 342 342 342 343 344 344 343 343 343 342 342 341 341 341 341 342 342
351 354 354 358 362 361 360 361 362 363 364 359 351 350 351 349 348 352 354 348 344 344 343 344 345 346 346 346 346 347 347 347 348 348 348 348 348 349 347 343 338 338 340 341 341 341 342 342 342 342 342 343 343 343 343 342 342 343 343 344 344 343 343 343 344 345 344 344 343 343 343 342 343 343 343 343 343 342 342 341 341 342 343 343 344 343 342 342 342 341 340 339 339 339 340 340 342
352 354 355 359 361 361 357 359 363 362 366 361 351 351 350 349 349 349 352 349 345 344 344 345 345 346 346 346 346 347 347 348 349 348 347 347 348 348 343 338 337 338 340 341 341 341 342 343 343 343 343 344 344 344 344 343 343 343 343 344 344 344 344 344 343 344 344 344 343 342 342 342 343 342 343 343 342 341 341 342 342 342 343 343 343 343 342 342 341 339 338 337 338 338 338 338 340
353 353 355 359 359 357 356 359 362 364 365 358 349 351 350 349 349 349 349 348 346 345 345 345 345 346 345 346 346 347 348 348 348 348 347 347 348 346 340 337 339 338 339 340 340 340 343 343 344 343 343 344 344 344 343 344 345 344 343 345 344 344 344 344 343 344 344 343 343 343 342 342 342 341 341 342 342 341 342 342 341 342 343 343 342 342 341 339 338 337 337 337 337 337 337 338 340
356 355 357 360 358 357 359 359 361 365 364 355 351 352 349 349 350 354 350 346 345 344 345 345 345 345 345 346 346 347 348 348 348 348 348 347 348 346 341 337 339 339 340 340 340 340 341 343 344 343 343 344 344 343 343 344 345 344 343 344 344 344 344 344 344 344 343 343 343 343 342 342 341 340 340 341 341 342 341 341 340 340 340 340 340 341 339 336 336 335 335 335 336 336 336 337 339
355 355 358 361 360 361 360 359 359 363 363 354 352 352 349 350 351 353 349 346 346 345 346 344 344 344 345 345 346 347 348 347 348 348 347 346 348 347 342 339 339 339 339 340 340 341 341 341 342 342 343 344 344 344 343 343 344 344 343 344 343 344 344 344 343 343 343 342 342 342 342 341 341 341 340 340 340 340 340 339 338 338 336 336 337 337 336 335 333 333 333 333 334 333 334 335 336
353 354 359 363 362 362 360 359 359 360 363 357 353 350 350 351 350 349 348 349 347 346 345 343 343 344 344 345 346 348 348 348 348 348 347 347 348 346 343 341 340 340 340 340 341 341 341 342 341 342 343 342 344 344 343 343 344 343 343 343 343 343 343 343 343 342 342 342 342 341 341 340 340 341 341 341 339 338 338 337 338 338 337 336 334 333 333 333 331 331 332 332 331 330 330 331 333
352 352 359 363 361 360 359 360 358 359 362 360 354 352 351 351 350 349 346 348 347 344 344 342 342 343 343 345 346 347 348 348 347 347 348 348 347 345 343 342 341 340 340 340 341 341 341 342 342 342 342 342 343 343 342 343 344 344 343 343 343 342 343 343 343 343 342 341 341 340 340 340 341 341 340 340 339 338 337 337 338 337 337 336 334 331 331 331 331 331 330 330 329 328 330 333 337
352 353 360 361 359 358 359 360 359 359 360 359 355 353 353 351 350 349 344 345 345 344 343 341 342 342 343 345 346 347 348 347 346 347 347 347 347 345 343 342 343 343 342 340 340 341 343 343 342 343 344 343 343 342 342 343 344 343 343 342 343 343 343 342 342 343 342 342 341 341 341 341 342 340 340 340 340 339 337 337 338 337 337 336 335 334 333 332 330 330 329 329 329 329 332 337 340
351 357 362 359 359 359 361 361 362 360 357 357 355 354 357 353 351 349 346 345 343 344 342 341 341 342 343 344 345 347 347 346 346 348 348 348 347 347 345 343 345 345 344 342 341 342 343 343 342 343 343 344 343 342 342 343 344 344 343 343 343 344 343 342 342 343 342 343 343 342 342 342 343 342 341 341 340 338 337 337 337 336 336 336 337 336 334 332 331 330 329 330 329 330 334 338 341
355 363 363 361 362 361 362 361 361 360 355 356 355 354 358 357 353 348 348 345 343 343 340 340 341 342 343 344 346 346 346 345 346 348 348 348 348 347 346 345 345 346 344 342 342 342 342 342 342 342 343 343 343 342 342 342 343 343 343 343 344 344 343 342 342 342 342 343 343 342 342 342 342 341 341 341 339 338 338 337 336 335 336 337 337 336 334 332 330 330 329 329 329 330 333 337 340
356 361 361 363 362 359 360 359 359 359 355 357 357 355 357 357 353 349 350 348 343 342 339 341 342 343 344 344 345 346 346 346 347 348 348 348 347 347 347 346 345 345 343 343 343 342 341 342 342 342 343 343 342 341 341 341 341 342 342 343 343 343 343 342 342 342 342 343 342 342 342 342 342 341 341 341 339 338 338 336 336 336 336 337 337 335 332 331 331 331 330 328 331 335 337 339 340
356 359 365 365 359 356 358 356 356 358 356 358 358 356 356 355 353 350 349 349 346 344 341 342 343 342 344 344 345 345 346 346 347 348 349 349 348 348 348 345 345 345 343 343 344 342 341 341 342 342 342 342 341 341 341 341 342 342 343 343 342 343 342 341 341 341 342 341 341 341 341 340 341 341 342 341 339 338 338 337 336 336 336 336 336 335 334 335 336 338 337 335 337 340 341 342 342
357 360 367 363 356 357 357 355 356 358 356 357 357 357 357 354 352 349 348 352 350 344 343 343 343 343 344 345 345 345 346 347 348 348 349 348 348 348 347 345 345 345 343 343 343 342 340 341 342 341 341 341 341 341 340 341 341 342 343 342 342 343 343 342 341 341 341 341 340 340 340 340 340 341 341 340 339 338 337 337 336 337 337 336 337 337 339 340 341 342 341 341 341 342 341 342 342
357 358 360 357 356 357 357 357 357 358 357 358 357 358 358 353 351 348 348 351 348 343 343 342 342 343 343 344 345 345 346 347 347 348 348 348 348 348 347 346 346 345 345 343 344 343 339 340 342 341 340 341 340 340 340 340 341 340 341 341 342 343 343 342 342 341 340 340 340 340 340 340 338 338 339 338 337 337 337 337 337 337 337 338 340 341 341 341 342 341 342 341 341 342 342 342 342
358 357 355 354 355 357 356 356 357 356 356 357 357 357 355 353 353 348 348 349 345 343 342 342 343 343 344 344 344 345 346 346 346 347 347 347 347 347 347 346 346 346 347 345 343 342 340 340 341 340 340 340 341 341 340 340 340 340 340 341 342 343 343 341 340 339 339 339 340 340 339 338 337 337 337 337 337 337 338 338 338 337 338 340 342 342 342 342 342 343 343 341 340 342 341 342 342
357 357 355 354 356 357 355 354 356 355 354 355 354 354 355 355 355 350 346 346 343 343 343 342 343 343 343 344 344 344 345 345 346 345 346 346 346 347 347 347 346 346 347 346 344 343 341 341 341 340 341 340 341 341 340 341 341 340 340 342 342 342 340 338 337 337 337 337 338 338 339 338 338 338 339 339 338 338 340 340 339 340 341 342 343 343 342 343 344 344 344 342 341 342 341 342 341
355 356 354 354 355 356 354 353 355 356 354 353 352 350 352 354 353 351 346 345 343 343 343 343 342 343 343 343 344 344 344 344 345 345 345 345 345 347 348 348 347 347 347 346 344 344 343 342 341 341 341 341 340 340 340 341 341 340 340 341 341 339 338 337 337 337 336 336 337 337 338 338 339 339 340 340 340 340 341 342 343 344 345 345 346 345 344 344 344 345 345 343 343 342 342 342 341
356 355 355 355 354 355 354 353 354 355 354 352 353 350 350 351 350 351 346 343 344 342 343 343 343 343 343 343 343 343 344 344 344 345 344 345 345 347 349 348 347 346 347 347 345 345 344 343 342 342 342 341 340 339 339 340 341 339 339 340 340 338 339 339 339 338 337 337 336 337 338 339 339 341 342 343 343 342 343 344 345 347 348 348 348 346 346 346 344 345 345 344 345 344 343 342 342
355 355 356 355 355 356 354 354 353 353 353 351 354 355 350 351 352 353 348 342 343 343 343 343 343 343 343 343 343 343 343 343 344 344 344 345 346 347 348 349 348 346 347 348 347 346 344 343 342 342 343 342 341 341 341 341 341 339 339 341 342 341 341 342 341 339 339 338 338 339 340 341 342 343 345 345 344 344 344 345 347 348 348 348 347 346 347 346 345 345 344 343 344 344 343 343 342
355 355 356 355 354 355 354 357 354 353 356 351 353 356 351 352 355 352 347 343 342 342 342 342 342 343 343 343 342 342 342 342 343 343 344 344 345 346 347 349 348 347 346 348 348 347 345 346 343 343 345 344 343 342 343 342 342 342 341 341 343 344 344 343 342 341 341 341 341 343 343 343 345 347 347 346 346 346 347 347 347 348 348 348 348 349 348 347 346 346 345 344 344 344 343 343 342
355 354 357 357 357 356 355 359 356 354 357 353 352 354 354 357 355 349 345 343 341 342 342 342 342 342 342 342 342 342 342 342 343 343 342 343 344 345 347 348 348 348 347 347 349 349 348 348 347 346 346 345 345 344 344 343 342 343 342 341 342 343 345 345 343 342 342 342 343 344 345 345 346 348 348 347 346 347 348 347 346 347 348 350 350 349 348 347 347 347 346 345 343 343 343 342 342
357 356 358 357 359 360 359 359 357 355 354 353 354 354 359 362 351 347 346 342 342 341 342 342 341 342 341 342 342 342 342 342 343 343 343 343 344 345 347 347 348 349 347 347 350 350 349 350 350 349 347 346 345 345 345 345 344 342 343 343 343 343 345 345 343 342 343 343 345 344 345 346 347 348 348 348 347 347 347 348 348 347 346 349 350 348 346 346 346 346 347 347 344 344 343 342 342
359 359 360 359 358 360 360 357 358 358 353 354 357 354 361 365 349 347 346 341 343 340 340 342 341 342 341 342 342 342 343 343 342 342 342 343 344 346 346 347 348 349 347 348 349 350 350 352 352 350 350 347 345 346 347 345 345 344 345 345 345 345 344 342 341 342 344 344 345 345 345 347 347 348 348 348 348 348 347 348 347 346 345 347 347 347 345 345 345 345 346 347 346 346 343 344 343
358 358 358 361 359 359 359 357 358 361 356 356 360 355 359 363 352 348 347 341 342 341 340 340 341 341 340 342 343 343 342 342 342 341 342 343 344 346 347 348 349 347 348 349 350 350 350 351 352 351 351 348 347 348 347 346 345 346 346 346 345 344 342 340 341 342 343 342 343 344 344 345 347 348 348 348 348 348 347 347 346 344 345 345 346 345 345 344 344 345 346 347 347 347 345 344 343
358 360 355 357 358 358 360 359 357 359 360 359 360 358 359 361 354 347 346 343 340 341 341 340 341 341 341 343 343 343 342 342 342 341 343 344 344 347 347 349 349 347 348 349 349 349 350 350 351 352 351 349 348 349 348 346 346 347 346 345 344 343 342 342 342 341 341 341 341 341 342 344 347 348 349 348 348 348 347 347 346 345 344 345 346 346 344 342 343 346 347 347 348 348 346 344 343
357 359 353 353 355 355 359 361 358 357 361 362 361 361 360 358 354 349 347 346 343 343 341 340 341 341 341 343 343 342 341 342 342 341 343 344 345 347 347 348 348 348 348 349 349 348 350 350 351 352 350 349 349 349 348 347 347 348 346 344 344 343 344 345 345 344 343 342 340 340 340 343 347 349 350 349 348 348 348 346 345 345 344 346 347 346 344 343 344 346 347 348 348 348 347 345 345
353 353 350 351 353 354 357 359 358 356 359 363 362 363 362 358 354 350 348 347 346 345 341 340 341 341 342 342 342 341 341 343 341 342 343 344 346 346 347 348 348 348 349 348 348 349 349 349 351 352 350 348 349 350 348 347 347 348 347 345 344 344 345 346 346 348 347 342 340 340 340 342 347 349 348 348 348 347 347 347 345 344 346 347 347 345 344 344 344 344 346 348 349 349 347 345 344
351 353 351 350 352 353 357 357 356 356 358 361 363 363 363 361 357 352 349 349 347 347 343 342 342 341 342 343 342 342 342 343 342 342 344 344 347 348 348 349 349 349 349 349 348 348 348 349 350 350 348 345 346 348 348 347 348 349 348 346 345 345 346 347 347 349 347 341 339 340 340 341 346 348 348 347 348 348 346 345 345 345 347 350 349 347 345 344 344 344 346 348 348 348 347 345 344
348 352 352 351 352 353 357 356 354 356 358 360 361 361 360 360 360 353 350 350 349 348 345 343 344 342 341 342 342 342 343 343 343 342 344 345 347 348 348 348 349 349 348 349 349 348 348 348 349 347 343 341 342 344 345 346 349 349 349 348 347 347 347 347 348 349 348 343 339 339 340 340 343 346 347 347 347 347 346 345 345 345 347 349 348 347 345 345 345 346 348 349 348 348 347 346 345
347 350 350 349 352 355 356 355 354 355 358 359 357 358 358 358 359 355 352 353 350 349 347 344 344 342 341 343 342 343 344 343 343 344 344 346 347 347 348 349 350 350 349 349 349 349 348 347 348 344 340 340 339 339 342 346 349 349 349 350 349 349 349 348 349 349 349 346 341 340 341 340 341 343 345 346 346 346 345 344 346 346 347 348 346 344 344 345 347 347 349 350 349 348 347 345 345
346 349 348 349 353 357 356 356 355 354 358 358 355 357 358 358 358 354 353 352 350 350 352 349 346 343 342 342 343 342 344 344 343 345 345 346 347 347 348 350 350 350 350 349 349 349 349 347 347 342 339 339 339 337 340 346 348 348 350 351 349 349 349 349 348 348 348 348 344 342 342 340 340 341 342 344 345 345 344 343 345 345 345 346 346 346 346 347 349 349 349 349 348 348 347 346 345
344 346 344 349 354 354 354 357 355 355 358 357 355 357 358 358 357 354 352 350 350 352 353 353 348 345 344 342 343 343 344 345 344 345 346 346 347 348 349 350 350 350 350 350 349 349 349 348 345 340 338 340 339 337 339 344 347 348 350 351 351 350 350 349 349 348 348 348 345 343 342 341 342 342 343 344 345 345 345 344 344 344 344 345 346 348 348 348 349 349 351 351 348 348 348 348 347
338 340 340 349 353 351 354 357 356 356 356 356 357 356 356 357 357 356 354 351 353 355 353 353 349 346 347 344 343 344 344 344 344 345 347 347 347 348 349 350 351 351 351 351 350 349 349 348 343 339 339 339 339 338 341 345 347 350 350 349 350 350 350 350 350 351 350 347 344 343 343 342 343 344 344 345 345 345 346 346 345 344 344 346 347 348 349 349 348 349 351 351 349 349 349 349 348
331 332 338 349 353 352 355 356 354 355 355 357 358 354 353 356 356 357 357 355 355 356 353 353 350 346 347 346 345 345 345 346 345 345 346 347 347 348 348 351 352 352 351 351 351 351 350 346 342 339 338 338 339 339 343 347 348 350 350 349 350 350 350 351 351 352 351 346 344 345 343 342 344 344 345 346 346 345 345 345 345 345 345 347 350 349 350 351 349 349 351 350 350 350 350 349 348
327 331 338 347 353 355 355 353 350 352 356 358 358 356 354 354 356 358 357 356 356 357 355 353 351 349 348 347 345 346 346 346 346 345 346 347 348 347 349 351 353 353 352 352 353 353 350 344 341 340 338 337 338 340 342 345 347 350 350 349 349 348 350 352 351 351 350 348 347 345 342 343 345 346 346 347 345 344 345 345 346 345 344 347 351 350 350 351 350 350 349 349 350 350 350 349 347
328 331 342 350 354 355 354 351 348 352 356 357 355 357 357 354 357 360 357 357 358 357 356 355 353 351 350 348 346 346 347 347 347 347 346 347 348 348 349 351 353 353 353 353 353 353 350 344 340 341 341 337 337 339 339 340 345 349 349 349 348 349 351 352 351 351 352 350 350 347 344 345 349 349 347 346 344 344 344 345 346 345 345 347 350 351 351 351 351 349 346 347 347 349 350 348 347
332 331 343 350 352 353 352 348 347 350 352 352 353 353 354 354 358 363 360 357 358 358 358 356 355 353 350 349 348 347 348 348 349 348 347 347 348 349 350 351 353 353 353 354 353 352 350 344 339 343 343 338 335 336 336 338 343 347 349 350 350 349 350 351 351 352 352 350 350 351 348 348 351 351 349 346 345 344 344 345 345 346 346 347 348 350 351 351 351 347 344 344 344 346 349 349 348
332 331 337 345 349 350 351 348 345 345 346 349 351 349 351 354 356 359 360 358 358 360 360 357 355 354 352 349 347 347 348 349 349 349 348 348 349 350 350 352 352 353 353 354 353 352 351 346 342 342 342 339 336 334 334 337 341 344 348 351 351 349 349 350 352 353 351 350 351 351 350 350 350 349 349 347 344 344 344 344 345 346 347 347 347 350 351 350 349 346 344 346 344 344 346 348 349
332 332 332 334 340 344 347 348 345 340 341 346 349 348 349 354 356 356 357 357 355 358 361 359 356 354 353 350 347 347 348 349 349 349 348 349 350 350 351 352 352 353 353 353 353 352 352 348 343 342 340 337 337 334 334 337 339 341 344 347 348 348 348 349 351 352 350 351 352 350 350 350 349 346 347 346 344 344 344 343 344 346 346 347 349 351 352 349 347 347 346 345 345 344 343 346 349
331 334 333 329 330 331 331 336 337 336 341 347 349 349 346 349 357 358 355 355 351 353 357 359 358 355 354 352 348 346 348 349 349 349 349 350 351 351 351 351 351 352 352 353 353 353 353 349 343 342 340 336 337 335 334 335 337 339 341 343 345 348 349 347 349 352 350 351 352 349 349 350 348 346 347 347 345 344 345 344 344 347 347 348 350 352 351 349 350 350 348 345 344 343 343 344 347
331 334 334 328 327 326 324 327 329 334 343 348 348 349 345 347 357 357 353 352 350 351 352 355 356 356 355 353 349 347 348 350 349 349 350 350 351 351 351 350 350 351 352 352 353 353 354 351 344 342 341 337 336 336 334 335 335 337 338 338 342 347 350 347 347 350 349 350 350 347 348 348 346 347 348 349 348 345 344 344 345 348 350 349 349 349 349 349 351 352 350 347 344 343 344 344 344
330 330 329 327 326 325 325 326 328 335 343 345 349 351 348 349 356 355 351 350 351 351 351 353 355 355 355 353 350 350 348 349 349 350 349 350 351 351 351 350 349 350 351 352 353 353 354 351 344 342 342 339 338 336 334 335 336 336 336 336 339 345 350 348 346 346 346 346 347 346 346 345 345 347 347 348 349 346 345 346 345 347 348 348 348 346 346 349 350 352 352 349 345 344 344 344 343
330 330 330 328 325 324 326 329 331 335 342 344 347 348 344 348 357 356 349 350 353 351 350 351 353 354 354 353 352 352 350 349 349 349 348 349 350 350 350 349 348 349 350 350 351 352 353 350 344 342 343 342 342 339 335 334 335 336 336 336 339 343 346 347 345 343 342 343 344 345 346 346 344 346 347 348 349 346 347 348 346 346 346 346 347 344 345 347 347 349 349 347 346 346 346 344 343
328 331 329 325 326 325 326 330 331 334 343 346 343 345 347 350 357 355 350 352 354 353 351 351 352 354 354 354 355 353 352 350 348 348 348 347 348 348 349 349 348 348 349 349 350 351 352 351 345 344 345 346 346 342 338 337 336 336 337 338 340 343 343 344 343 343 342 342 344 345 346 347 346 346 347 349 349 346 347 349 347 346 345 345 345 344 344 345 344 345 345 344 346 347 346 345 344
325 326 325 326 330 327 323 326 330 330 336 341 341 343 347 347 351 353 352 354 353 352 352 351 352 353 354 355 355 353 352 349 348 348 347 347 347 347 349 348 347 348 349 349 349 348 351 352 348 344 346 347 347 345 341 341 339 338 339 340 342 344 343 342 342 344 343 344 346 346 346 348 349 349 349 350 350 349 348 350 349 346 345 345 344 344 344 345 345 344 344 344 345 346 346 345 344
324 320 322 327 329 327 325 324 326 326 330 340 345 343 343 347 352 355 351 353 353 353 353 351 351 352 354 354 355 354 353 350 349 348 346 347 346 346 348 347 347 348 350 349 347 348 349 351 349 346 346 347 347 346 344 343 343 341 339 340 342 344 344 342 343 345 344 346 348 348 349 349 349 352 352 351 353 351 349 349 349 347 345 345 345 344 343 344 344 345 345 344 344 344 346 346 345
326 321 323 326 323 323 325 322 323 324 330 343 348 342 342 346 350 352 352 353 353 353 353 352 351 351 352 353 353 354 355 353 350 347 346 346 346 346 347 347 347 347 349 348 347 348 348 349 349 347 345 346 346 346 346 344 345 344 341 340 340 343 344 342 343 345 345 347 349 350 351 351 350 352 353 353 353 353 350 347 346 346 346 346 346 345 344 344 344 344 344 344 344 344 345 346 344
325 322 322 324 322 324 325 322 325 326 327 339 344 342 343 347 348 350 351 351 351 353 354 353 351 351 350 349 349 351 354 355 352 348 347 346 345 347 347 347 347 347 348 347 348 349 348 349 349 348 346 346 344 345 347 345 345 344 343 342 340 342 343 343 346 349 349 349 351 351 351 351 350 351 351 352 353 354 352 349 347 346 346 347 347 345 344 346 345 344 344 344 344 344 344 343 343
321 319 320 321 322 325 325 322 325 326 324 330 340 342 343 350 359 358 353 354 353 352 353 353 351 352 351 349 349 350 352 353 352 349 347 347 345 346 346 347 347 348 348 348 348 349 349 349 350 349 348 347 344 344 345 345 345 344 344 343 342 342 343 345 351 354 354 353 353 353 352 352 352 351 351 351 352 352 353 352 350 347 345 346 350 348 346 347 346 343 344 345 344 345 345 344 344
322 321 320 321 322 321 321 325 325 323 323 326 335 344 347 353 361 360 359 363 358 352 351 351 352 352 352 352 351 352 353 353 352 350 349 349 347 346 346 347 348 348 349 349 349 349 350 350 351 350 351 350 347 345 344 344 344 344 344 344 342 343 343 346 352 355 354 353 353 354 354 354 353 353 352 352 351 351 352 353 354 352 349 349 352 353 351 349 349 347 346 344 344 346 346 343 344
Wind_Speed
7 8 5 4 5 5 2 1 1 1 1 2 0 0 1 2 4 5 6 5 4 7 18 23 21 22 18 14 16 19 16 7 7 5 7 15 23 21 20 20 18 18 18 17 15 14 14 13 13 13 12 12 11 11 10 10 9 9 9 9 9 9 9 10 10 12 13 13 15 16 16 17 18 18 19 19 19 19 19 19 19 20 21 21 20 19 19 20 20 20 20 20 19 20 21 21 21
8 5 2 3 4 3 2 2 1 2 2 2 0 2 3 3 5 6 4 4 6 12 24 29 28 28 25 24 27 26 19 14 22 21 22 26 25 21 20 20 18 19 17 16 14 13 13 13 13 12 12 11 11 11 10 10 9 8 8 8 9 8 9 9 10 11 12 14 15 16 16 17 18 18 19 19 19 18 19 19 19 20 20 20 19 18 19 20 20 20 20 19 19 20 21 20 20
6 2 0 2 3 1 2 2 2 1 2 3 2 3 4 5 6 5 5 11 15 17 21 23 24 24 27 25 24 21 12 21 36 33 30 29 27 25 22 21 20 19 17 15 13 13 13 13 13 12 11 10 10 10 9 9 9 9 8 8 8 8 8 9 10 11 12 13 14 15 16 16 17 18 19 19 18 18 18 18 19 20 20 19 18 17 18 19 19 19 20 19 19 20 20 19 19
5 3 1 2 1 2 1 1 1 2 1 1 3 5 5 6 6 6 12 18 17 17 18 20 19 22 29 21 17 21 14 22 33 33 30 27 27 28 22 20 19 17 17 15 13 14 13 13 13 12 11 10 10 9 10 9 9 9 9 9 9 9 8 9 10 10 11 12 14 14 15 16 17 18 19 19 18 18 17 17 18 18 18 19 18 17 17 18 19 19 20 19 19 20 20 19 18
5 4 2 2 1 2 1 1 1 2 1 1 1 4 6 7 7 7 15 19 16 17 20 19 15 20 26 20 16 17 18 25 26 27 30 28 27 26 22 20 19 16 15 15 14 13 13 13 12 11 10 9 10 9 10 10 10 10 10 10 9 9 8 9 10 10 11 12 13 13 15 16 17 18 19 19 19 18 17 17 17 17 17 18 18 17 17 17 19 19 19 19 19 19 19 19 18
5 4 1 2 2 1 1 1 2 0 2 3 1 5 8 5 8 11 16 19 16 18 21 19 18 20 21 20 21 21 23 25 23 25 29 31 28 26 24 24 22 16 14 15 13 13 13 12 11 10 10 9 10 10 10 10 10 10 10 10 10 10 9 9 11 11 11 12 13 13 14 15 17 19 19 19 19 19 17 17 17 17 17 17 18 17 17 17 18 19 19 19 19 19 19 18 18
3 3 3 3 2 2 1 1 2 0 2 4 1 5 7 6 14 15 14 15 14 17 22 23 24 20 15 19 21 21 22 23 28 29 30 33 30 27 26 25 22 16 15 15 13 14 13 12 11 10 11 11 11 11 10 10 10 10 10 10 11 11 10 10 11 12 12 13 13 14 15 15 17 18 18 18 18 19 18 17 16 16 17 17 17 17 17 17 18 19 19 18 18 19 18 18 18
1 1 3 2 1 2 1 1 2 0 1 2 3 5 9 12 17 12 9 12 12 15 23 25 26 18 14 20 19 20 24 24 30 31 32 33 31 27 25 23 19 17 16 15 14 14 13 13 12 11 12 13 12 12 11 11 10 11 11 11 11 11 12 11 11 12 13 13 14 15 15 16 17 18 18 18 18 18 18 17 16 16 17 17 17 17 17 18 18 18 18 18 17 18 18 17 17
4 1 2 2 1 1 1 1 1 1 1 2 2 8 13 14 14 9 7 11 14 16 24 25 24 20 18 24 22 25 28 26 30 31 32 30 27 24 21 19 18 19 17 15 15 15 14 13 13 12 13 13 13 12 11 11 11 11 12 12 12 12 12 12 11 12 14 15 15 15 16 16 16 17 18 18 17 17 18 17 17 16 16 17 17 18 18 18 18 18 18 17 16 17 17 17 17
4 2 2 1 1 2 1 1 1 1 3 3 5 11 11 10 9 7 6 11 18 19 25 27 25 26 23 22 22 26 29 29 31 30 29 27 23 19 18 18 18 19 17 16 15 15 15 14 13 13 13 13 12 12 11 11 11 12 12 12 13 13 12 12 12 12 14 16 15 15 16 16 16 17 17 18 17 17 18 17 17 16 16 17 17 18 18 18 18 18 17 16 16 16 16 16 16
2 3 2 1 2 2 1 1 0 1 4 2 6 12 12 10 8 8 9 15 24 25 27 26 22 27 25 20 22 26 28 29 29 29 27 24 19 17 18 18 17 17 16 16 15 15 16 15 13 12 13 13 12 12 11 11 12 12 12 12 13 13 12 12 12 12 14 15 16 16 16 17 17 17 17 17 17 17 18 17 16 16 16 16 16 17 17 18 18 17 16 15 15 15 16 15 15
3 2 1 1 1 1 1 3 2 2 4 2 5 10 15 11 7 6 10 18 25 24 22 21 20 25 20 16 22 26 26 27 27 28 26 23 18 15 17 18 17 16 16 15 15 16 15 15 14 13 13 12 12 11 11 12 12 12 12 12 13 13 13 12 12 12 13 15 16 16 16 16 17 18 18 18 18 17 17 17 16 15 15 15 16 16 16 17 17 17 16 15 14 15 15 15 14
4 2 1 0 1 1 2 2 2 2 2 4 4 10 16 10 8 8 13 20 22 18 18 24 26 25 18 17 24 25 24 25 27 26 25 25 21 17 17 17 17 16 16 15 16 16 15 15 14 14 13 12 12 11 11 12 12 12 12 13 13 13 14 13 13 14 14 15 16 17 17 16 17 18 19 19 18 18 17 16 15 14 15 16 16 16 16 16 16 16 15 15 14 15 15 15 14
5 3 2 1 1 2 3 2 2 1 1 2 4 12 12 8 11 11 12 15 16 22 23 27 29 23 20 20 22 25 25 25 27 25 23 25 23 18 16 16 16 17 16 16 16 16 16 15 14 14 13 13 12 12 12 12 13 13 13 14 14 14 15 15 15 16 16 16 16 17 18 18 18 18 19 19 18 18 17 17 16 15 16 17 17 17 16 16 15 15 15 16 15 15 16 16 15
6 3 2 1 1 2 2 2 3 2 1 2 2 11 8 7 10 9 14 15 17 29 26 25 25 19 19 18 19 27 28 26 25 22 22 23 21 16 16 17 17 17 17 16 16 16 16 15 14 14 13 13 13 14 14 13 14 14 14 15 15 15 16 17 18 18 18 18 18 18 18 19 18 18 19 18 17 17 17 17 16 16 16 17 17 17 17 16 15 15 16 16 15 16 17 18 19
8 5 3 1 0 2 2 3 4 3 2 3 2 10 8 6 6 8 17 20 22 29 26 23 21 18 23 24 26 32 30 27 24 21 23 22 20 17 17 18 18 17 16 16 16 16 16 15 14 14 13 13 13 14 14 15 15 15 16 17 17 17 18 19 19 20 20 19 19 19 19 19 19 19 19 18 17 16 16 16 16 15 16 17 17 17 17 16 16 16 15 15 16 17 19 20 20
8 3 2 1 1 2 4 5 4 5 4 2 5 7 7 4 5 9 11 17 25 26 26 24 21 23 28 29 31 33 30 28 27 24 23 22 22 20 18 17 18 17 16 16 16 16 15 15 15 14 13 12 13 14 15 16 16 17 19 19 19 19 19 20 21 21 21 20 20 19 19 19 18 18 18 17 17 16 16 17 16 15 16 17 17 17 17 17 16 16 16 15 17 18 19 19 18
7 0 1 2 2 3 4 5 5 6 6 5 8 8 7 5 7 10 6 13 23 23 25 26 25 28 29 32 33 31 30 29 28 25 23 24 24 21 17 16 17 17 17 17 16 16 15 15 15 14 14 13 13 15 16 17 17 19 21 20 21 21 20 21 22 21 21 21 19 19 20 19 18 18 18 17 16 16 16 16 16 16 17 17 17 17 17 17 17 17 16 16 17 18 18 16 17
6 1 1 2 2 3 4 7 6 4 11 10 9 9 8 9 9 9 6 11 17 16 23 28 31 33 32 34 32 30 30 29 28 25 24 25 23 20 17 15 16 18 18 17 16 16 15 15 15 14 14 14 15 17 18 18 18 20 22 22 22 22 21 21 22 21 20 20 20 20 19 19 19 18 17 17 17 16 15 15 16 17 18 18 18 17 17 17 17 17 16 16 17 19 18 16 16
6 4 1 3 2 2 5 11 9 6 15 12 10 9 8 13 10 8 10 11 11 12 21 28 32 34 34 34 32 31 29 28 26 24 24 22 21 20 16 15 16 18 18 18 17 16 15 15 15 14 15 15 16 18 19 19 19 21 22 23 23 23 22 21 21 21 20 20 20 20 19 19 19 18 17 17 18 17 16 16 16 17 17 17 17 17 17 16 15 15 15 15 16 17 17 16 15
2 1 1 2 1 1 5 13 11 10 18 16 13 10 9 14 11 10 13 7 6 15 26 31 34 35 35 34 32 30 27 26 24 23 24 20 19 19 15 15 16 17 18 19 18 16 15 15 15 14 16 16 16 18 20 20 21 21 22 22 23 23 21 20 20 19 19 18 18 19 19 19 19 18 18 18 18 17 17 16 16 17 17 17 17 16 15 15 15 15 15 14 13 14 14 15 15
3 2 1 4 2 1 4 9 9 11 16 14 13 10 10 14 10 14 13 5 9 21 30 33 36 36 35 34 31 29 27 25 24 23 22 19 19 19 15 15 16 16 17 19 19 16 15 15 15 15 16 17 17 18 20 21 21 21 22 22 22 21 20 19 19 19 19 18 17 18 18 18 18 19 19 19 19 18 18 18 18 18 17 17 16 16 15 14 14 14 14 13 13 13 11 12 13
4 2 4 6 4 3 4 4 7 14 14 12 13 11 12 11 8 14 11 10 21 30 32 33 35 35 34 33 31 29 26 24 23 23 21 20 21 20 16 15 16 16 17 18 19 17 16 15 15 15 16 17 17 18 20 22 22 21 21 20 19 19 18 18 19 19 19 18 18 17 18 18 18 19 19 19 19 19 19 18 17 16 16 15 14 14 13 13 12 10 11 12 12 11 10 10 10
9 0 0 4 4 6 5 3 8 16 15 11 12 7 9 10 7 10 10 17 31 34 33 33 32 33 32 31 30 28 26 24 23 21 20 20 22 19 14 14 15 16 18 18 18 17 16 15 15 16 16 16 17 18 20 21 21 21 21 19 18 18 17 18 19 20 19 19 19 19 19 19 19 19 18 18 19 18 17 16 15 15 14 14 13 12 12 11 10 9 9 10 11 11 12 12 10
8 3 3 4 6 9 7 2 8 12 11 9 10 4 7 12 11 7 12 24 35 35 33 32 31 30 30 30 29 28 26 23 22 21 20 20 20 18 14 13 14 16 18 19 18 18 16 15 15 16 16 15 16 18 19 19 19 20 20 19 19 19 19 19 19 19 19 20 20 21 21 20 19 18 17 17 17 16 15 15 14 14 13 13 12 11 10 10 10 10 8 7 7 8 10 10 9
6 7 8 7 7 10 8 7 14 13 5 10 14 4 7 9 14 8 14 27 35 34 32 31 30 29 28 29 29 28 27 24 23 21 20 21 20 19 17 13 13 15 17 18 19 18 17 16 15 15 16 15 16 17 17 17 17 19 20 20 21 21 21 20 19 19 18 18 19 20 20 19 18 18 17 16 14 14 14 14 13 13 13 11 10 10 9 9 9 8 7 6 6 4 7 9 9
13 14 12 11 7 7 10 10 14 12 6 11 13 6 4 5 9 6 14 27 34 34 32 30 29 28 28 28 29 29 27 25 24 22 21 22 21 19 17 15 13 13 15 18 19 19 18 18 16 16 16 16 16 16 15 16 17 18 20 21 21 21 20 20 20 19 18 17 17 17 17 17 17 15 14 14 14 14 13 13 12 11 11 10 9 9 8 8 8 7 8 9 8 9 8 9 10
21 18 13 12 7 7 9 8 11 8 4 7 10 7 4 5 3 7 17 28 33 33 31 30 28 27 27 26 27 28 27 25 23 23 23 23 21 19 18 18 15 12 14 18 19 19 20 19 17 16 16 16 17 16 15 16 17 17 19 20 20 19 19 19 19 19 18 18 16 15 14 15 15 12 11 12 12 12 11 12 12 10 9 9 7 7 7 7 8 9 10 9 10 11 8 7 8
21 16 9 8 7 5 5 5 8 7 3 3 5 3 2 2 5 13 20 28 33 32 29 29 27 27 27 25 26 27 26 25 23 23 23 22 21 20 20 20 18 15 13 15 19 19 19 19 18 17 16 16 17 17 16 15 16 17 17 17 18 19 18 18 18 19 20 19 17 15 13 13 13 11 10 9 9 10 10 10 11 9 8 8 6 5 7 9 9 9 8 8 9 9 8 8 8
15 10 5 5 4 2 3 4 7 8 4 4 4 1 2 1 9 14 18 29 34 30 27 27 26 26 26 25 26 27 26 25 24 23 23 22 21 21 21 20 20 19 14 15 18 17 18 18 16 16 16 16 17 18 17 16 17 16 16 16 16 17 16 16 18 18 19 19 17 15 14 12 10 9 10 9 8 8 8 7 8 8 7 8 7 5 6 8 9 9 8 9 9 8 9 10 8
8 6 3 3 2 1 3 3 5 6 5 5 1 3 2 3 6 8 15 29 32 27 26 26 25 26 25 23 24 26 25 25 25 23 22 22 21 21 21 21 21 19 15 16 18 17 18 18 16 17 15 15 17 17 16 17 18 17 16 15 15 14 14 15 16 16 15 15 15 15 14 13 12 10 9 9 7 6 6 5 7 7 7 7 8 7 7 7 9 10 9 9 9 9 10 9 9
3 3 1 2 2 1 3 2 1 3 5 2 4 3 2 4 6 6 12 26 27 23 24 25 25 26 25 23 23 25 23 23 24 22 21 22 21 21 22 22 21 18 18 21 19 17 17 17 18 18 16 16 17 15 14 15 17 17 16 15 14 13 13 14 14 13 12 12 13 14 14 14 14 12 10 9 7 5 5 5 6 6 6 6 7 8 7 7 8 9 9 8 9 9 10 10 10
1 2 4 2 3 3 1 2 5 3 2 3 4 3 2 3 7 8 8 20 23 19 22 25 26 27 24 23 24 25 22 22 24 21 21 24 22 23 24 22 20 18 21 24 21 17 17 18 18 19 18 18 17 15 13 14 15 15 15 14 13 12 11 11 11 11 12 11 11 11 12 13 14 13 11 10 9 6 5 6 6 6 7 7 7 7 7 7 8 9 9 8 8 8 10 10 10
2 1 3 4 6 6 3 2 4 5 3 2 3 3 2 2 7 9 7 16 19 16 21 24 26 27 24 23 25 24 22 23 25 22 22 25 23 23 23 20 20 21 23 23 20 19 19 19 20 20 20 20 20 18 16 15 14 15 15 14 14 11 9 9 8 8 10 10 10 10 11 13 14 14 12 9 9 7 6 6 6 7 8 7 7 7 8 8 9 9 9 9 8 7 8 9 10
5 4 4 4 6 7 5 3 2 6 4 3 3 2 1 2 7 9 8 13 13 12 21 24 25 28 24 23 26 24 22 24 25 22 23 25 23 21 20 20 22 23 22 21 20 22 20 19 20 21 21 23 23 21 19 17 16 17 16 16 15 13 11 10 8 7 7 9 10 11 12 13 13 14 13 11 8 7 7 6 5 7 8 7 7 8 8 9 8 8 9 9 8 6 7 9 9
8 7 6 7 7 5 6 4 3 7 4 2 4 2 1 3 5 7 9 11 10 10 16 24 25 28 25 23 27 24 22 26 24 22 24 25 24 22 23 23 23 23 22 22 22 21 21 21 21 21 22 23 24 24 22 20 18 17 17 17 17 16 15 12 11 10 8 8 10 10 12 13 13 12 12 10 8 7 6 5 6 7 8 6 7 8 8 8 8 8 9 9 8 7 6 6 6
9 6 5 8 7 5 7 7 6 8 5 2 3 2 2 3 4 7 11 11 9 11 10 20 24 27 25 23 27 23 22 27 24 22 24 25 26 25 25 25 24 24 23 23 23 20 21 23 22 20 20 21 23 22 22 22 20 18 17 17 17 18 17 15 13 12 8 8 10 10 11 13 12 11 9 7 6 6 5 6 7 6 7 7 7 8 8 8 8 9 8 8 9 8 6 4 3
10 7 5 7 6 5 8 8 7 7 5 2 3 2 1 2 3 1 3 4 6 8 6 12 20 26 25 23 27 23 22 26 24 24 25 25 27 25 23 23 24 26 24 24 24 22 23 23 22 20 20 21 21 21 22 22 20 18 17 16 16 15 15 14 14 14 10 8 9 9 10 12 12 11 9 7 6 6 6 6 7 6 7 6 6 7 7 8 7 8 8 8 9 8 7 7 5
9 6 6 6 6 7 7 7 7 4 2 3 5 3 2 1 3 6 6 6 8 9 5 5 13 22 23 23 28 25 22 25 25 27 26 25 26 24 23 24 26 26 25 25 25 25 25 24 22 20 21 21 20 21 22 21 20 19 16 15 15 14 12 12 13 13 11 9 9 10 10 11 11 11 10 9 8 7 6 6 7 7 7 6 6 7 7 8 7 7 7 7 8 8 7 7 6
8 7 6 7 9 8 5 5 6 2 2 5 7 5 1 2 4 4 3 5 11 12 8 9 9 16 20 23 29 26 25 27 26 27 28 26 26 26 26 26 28 27 25 25 26 27 26 24 22 20 22 22 20 22 22 19 19 18 15 13 13 12 11 11 11 10 10 10 11 11 11 11 11 10 10 9 8 7 6 6 7 7 8 7 8 8 7 7 8 8 7 6 8 9 7 6 6
7 9 6 10 12 8 7 9 9 4 2 5 8 4 0 2 2 2 5 7 10 13 12 11 10 12 15 20 28 27 26 29 27 26 29 29 27 28 28 26 26 26 25 26 26 26 26 24 22 21 23 22 21 22 21 19 20 20 16 14 14 13 12 13 13 11 10 11 12 11 11 12 11 11 10 9 8 7 7 6 6 7 8 8 8 8 8 7 7 8 6 5 7 8 7 5 5
3 7 6 15 15 11 15 15 10 4 1 4 6 3 1 4 6 6 5 5 7 11 12 11 11 13 12 16 25 26 25 29 28 26 28 30 29 28 28 27 24 23 25 26 26 25 25 24 21 21 23 23 22 22 21 20 21 21 19 17 18 17 15 15 14 13 11 11 12 12 12 12 11 11 10 8 8 8 7 6 6 8 9 9 8 8 9 8 7 7 5 5 9 10 8 6 6
2 5 6 17 16 16 20 17 9 4 2 6 7 3 2 3 6 7 7 6 8 9 9 11 13 14 13 16 23 26 25 29 28 26 27 29 30 29 29 28 25 24 24 24 26 25 24 25 22 21 23 23 23 23 22 22 22 22 21 20 19 18 17 16 13 12 11 10 11 11 12 12 11 11 10 8 8 8 7 7 8 8 9 10 9 9 9 8 6 6 5 6 9 10 9 8 8
3 2 11 19 17 18 21 16 7 4 4 3 4 3 3 2 4 8 11 9 8 8 8 10 14 15 17 17 22 27 25 28 29 27 27 28 29 30 29 28 26 25 25 24 26 24 22 24 23 23 23 23 23 23 23 23 23 22 22 22 20 19 17 15 14 14 11 9 10 10 12 12 10 10 10 8 8 8 7 7 8 9 10 11 11 9 7 7 6 4 4 5 8 10 10 9 8
7 5 11 18 16 18 19 12 6 5 6 3 3 3 2 1 2 7 11 10 10 12 10 11 14 17 19 18 22 29 26 25 29 28 28 28 29 30 28 28 27 26 25 24 25 22 20 22 23 24 24 23 23 23 22 22 22 21 21 22 21 18 17 15 15 15 12 10 11 11 12 12 11 10 10 9 8 8 8 8 8 8 9 10 10 9 6 6 4 3 4 5 8 10 10 9 8
7 7 6 13 14 15 13 7 6 6 3 3 8 7 2 1 3 5 7 7 11 12 9 11 16 19 21 20 21 28 26 25 27 28 29 29 29 29 28 27 27 26 25 24 24 22 20 21 23 25 24 23 23 24 22 21 22 20 21 21 20 18 17 16 15 15 14 13 13 13 13 12 12 11 10 9 9 9 9 9 8 9 9 9 9 8 7 6 4 4 5 6 6 8 10 9 8
5 4 2 4 6 9 8 3 5 4 1 3 12 12 4 0 3 5 6 7 11 11 8 10 16 19 21 22 21 25 27 28 27 27 28 30 30 28 27 27 27 27 27 26 26 24 21 21 23 24 23 22 24 24 22 22 22 21 21 21 20 18 17 16 17 16 16 15 14 14 12 11 11 11 10 10 9 10 9 9 9 9 10 10 9 8 8 7 6 6 6 7 7 8 9 10 10
6 1 3 1 2 2 4 2 4 3 2 3 12 12 5 1 3 6 9 9 8 11 11 11 13 18 21 23 22 23 26 29 28 27 27 30 31 29 27 28 28 28 28 28 27 26 23 21 22 24 23 22 24 23 22 23 23 22 22 20 19 19 16 16 18 18 16 15 15 14 12 11 11 11 11 10 10 10 10 10 10 9 10 10 9 10 10 8 7 7 7 7 7 8 9 9 9
4 3 5 2 1 2 1 1 1 2 1 4 12 10 4 3 3 7 11 10 9 13 17 18 19 20 22 24 24 22 24 28 28 27 27 29 31 30 29 29 30 31 31 30 29 28 25 22 23 24 23 23 24 24 24 24 23 22 22 20 18 20 17 16 18 19 17 15 15 14 13 13 12 11 12 11 10 10 10 11 10 10 10 10 8 9 9 8 8 9 7 6 7 8 8 9 9
2 4 4 3 2 1 2 2 2 2 2 5 9 7 2 2 2 6 10 13 15 18 24 28 28 25 23 25 27 23 23 28 28 27 29 30 31 32 30 29 31 33 33 32 30 28 26 24 24 25 24 23 23 24 24 24 23 22 22 20 19 21 19 16 17 18 17 16 15 15 13 13 13 12 10 10 10 10 10 10 10 9 9 8 8 8 9 9 9 10 7 6 7 7 8 9 9
4 4 5 2 2 2 2 2 3 3 3 4 6 4 2 1 3 5 10 16 19 20 24 30 30 26 23 24 27 25 22 26 29 29 29 31 32 32 30 28 30 33 33 32 30 29 27 25 25 25 24 23 23 23 24 24 23 21 21 20 19 20 19 17 16 15 15 15 15 14 12 12 13 12 10 10 10 9 10 11 9 9 9 8 9 9 9 9 10 10 8 6 6 8 9 8 9
4 4 5 2 3 2 1 3 5 5 4 3 3 1 1 2 3 2 6 12 16 17 20 26 27 25 23 22 25 26 23 23 27 30 29 30 32 31 30 29 30 32 33 31 30 28 27 26 25 25 24 23 23 23 23 23 23 21 22 21 20 20 19 17 16 14 14 14 14 13 12 12 12 12 11 11 11 10 10 11 10 8 9 9 9 9 9 9 9 9 9 7 8 9 9 7 8
2 3 4 6 5 4 2 1 3 5 5 0 1 1 2 1 2 0 6 8 11 14 16 22 26 27 24 22 24 26 26 23 24 28 30 30 32 32 31 31 29 29 32 32 29 26 26 25 25 25 25 24 23 23 23 23 23 22 22 22 21 20 19 17 16 15 14 13 13 12 12 12 12 12 12 11 11 11 11 11 9 8 9 10 9 9 9 8 8 8 8 8 9 9 9 7 7
2 2 2 4 5 5 1 2 1 1 3 1 2 1 1 2 2 2 5 7 10 12 13 19 24 27 25 24 23 24 27 26 24 27 29 29 31 32 32 32 30 28 30 30 27 25 25 24 24 25 26 25 24 23 23 23 23 22 23 23 22 21 19 18 17 15 14 13 13 13 13 13 12 12 11 11 11 11 11 11 9 9 10 10 9 9 8 7 7 7 7 8 9 9 9 8 7
4 2 4 2 3 4 1 2 2 1 2 1 2 2 3 3 4 6 9 9 11 13 13 15 20 25 27 26 24 24 27 27 24 25 30 30 30 31 31 32 31 29 29 29 26 26 26 24 23 24 25 25 24 23 23 23 23 22 22 22 22 21 20 18 17 16 15 14 13 13 14 13 12 12 12 11 11 10 10 11 11 10 10 10 9 9 8 7 7 7 7 7 8 8 7 7 7
4 4 4 1 2 4 2 2 3 2 2 3 3 3 3 3 4 8 11 11 11 13 13 14 20 26 29 29 28 27 29 30 25 23 29 33 33 32 31 32 32 30 29 28 27 28 28 25 22 22 24 25 25 24 24 24 23 23 22 22 22 22 21 19 17 15 15 15 14 13 13 13 12 12 12 12 12 11 11 11 11 11 11 10 9 9 8 8 8 7 7 7 8 7 7 7 7
2 1 3 3 2 2 3 2 3 4 3 3 4 2 3 2 2 4 7 8 9 12 12 12 20 27 28 30 31 31 32 35 31 24 26 32 35 34 32 31 31 31 28 26 27 28 27 25 23 21 23 26 26 25 24 24 23 23 22 22 22 22 21 19 18 17 16 16 15 14 13 12 12 12 12 13 13 12 12 10 10 11 11 10 10 8 8 9 8 7 7 7 7 7 7 7 7
4 4 3 5 4 2 1 3 4 3 3 3 4 4 1 3 3 2 3 4 4 8 11 12 18 25 27 28 30 33 35 37 35 28 23 28 35 37 34 32 31 31 29 27 27 28 27 25 23 21 22 25 26 26 25 24 23 23 22 22 21 21 21 20 19 19 18 16 16 15 14 13 13 13 12 12 12 13 12 10 9 9 9 9 9 7 7 8 9 8 7 7 6 6 7 7 7
Wind_Direction
116 104 78 61 30 35 53 229 114 20 96 77 78 176 30 95 88 77 69 76 87 57 69 80 84 86 90 92 89 67 53 112 135 114 135 151 151 147 144 142 144 140 137 138 137 136 132 128 124 122 123 124 127 127 125 126 129 131 131 130 127 124 121 119 117 114 116 118 120 122 122 123 122 122 121 123 122 119 117 117 119 119 117 119 120 116 113 114 116 115 112 111 110 110 109 109 110
97 94 83 65 32 10 323 343 82 6 35 69 300 171 138 91 81 97 116 95 88 85 83 85 85 84 89 86 84 72 43 83 116 115 128 143 145 147 146 143 141 136 136 136 137 139 132 127 124 124 127 128 130 131 131 131 133 134 134 134 130 129 129 124 122 120 123 125 125 125 124 125 124 123 123 126 125 121 119 120 122 120 119 119 119 116 113 113 116 117 114 112 112 111 110 110 110
102 85 334 52 32 294 290 7 89 43 48 92 108 157 138 106 109 125 123 104 105 99 89 87 84 83 85 75 77 88 67 92 114 121 130 145 146 148 149 144 138 133 134 134 137 137 131 127 124 125 126 126 128 130 131 131 130 130 130 131 132 136 136 129 126 128 130 128 127 130 128 125 124 125 126 127 125 121 119 122 123 122 122 121 119 117 113 113 115 117 116 114 113 112 111 110 109
149 118 250 236 9 335 356 45 77 93 70 72 112 140 122 111 116 109 106 109 112 99 87 85 83 85 86 86 90 94 94 103 116 123 133 148 143 143 146 136 133 134 134 135 137 135 131 127 124 126 127 131 130 127 125 126 126 127 129 131 135 138 139 134 131 134 133 130 129 131 130 127 126 127 128 128 125 121 121 124 126 126 126 123 120 118 116 115 115 117 117 116 115 115 114 112 109
138 110 188 201 107 335 45 72 42 92 149 165 134 124 110 119 121 111 111 112 111 103 103 101 98 95 89 95 102 102 116 115 118 123 132 142 135 137 137 126 131 140 136 134 135 133 130 126 126 126 127 131 127 124 122 122 123 124 125 127 130 133 140 139 136 136 131 130 130 130 129 129 129 131 132 131 127 124 125 128 129 129 127 124 122 121 119 116 116 118 118 117 117 117 115 112 111
120 88 98 110 77 17 29 34 110 125 194 159 210 119 115 122 114 108 111 111 110 112 113 107 106 102 90 93 101 116 128 124 129 129 131 136 133 133 134 138 148 148 134 133 132 128 126 125 127 125 125 126 125 124 121 122 123 123 122 122 126 129 138 140 136 136 134 131 131 131 131 133 134 136 135 133 130 127 128 131 131 131 127 123 122 122 119 116 116 118 119 119 119 118 115 113 113
85 62 43 69 49 46 43 308 113 339 199 156 216 125 117 112 112 111 115 114 103 102 102 96 102 99 94 103 104 115 124 127 133 132 132 134 133 136 144 155 161 149 135 133 128 124 123 126 129 126 126 126 123 120 117 118 120 123 124 125 127 131 138 138 136 136 137 134 134 135 136 139 138 137 136 133 132 130 130 132 132 130 126 123 122 121 119 117 117 119 120 120 120 118 116 114 112
358 26 27 73 68 55 123 301 76 274 171 178 247 121 119 126 126 129 133 126 113 105 101 101 105 99 99 106 103 115 118 124 129 128 129 130 134 145 156 162 158 144 137 132 126 124 124 127 126 125 126 122 119 115 113 115 118 123 126 129 129 135 139 137 140 140 136 134 135 138 140 141 139 137 137 134 131 130 131 131 129 127 125 123 121 119 119 118 118 119 120 121 120 118 117 115 111
224 281 18 80 122 68 117 29 72 283 295 233 205 118 124 133 136 144 137 127 126 113 105 110 110 102 103 102 103 114 116 124 127 125 126 129 140 153 157 154 147 139 135 129 125 126 124 126 126 124 123 119 117 115 114 116 119 122 126 131 133 137 139 138 141 139 135 134 137 140 138 138 138 137 137 133 130 131 131 130 128 127 124 121 120 120 120 120 119 119 120 121 122 120 118 115 112
201 316 23 43 71 72 80 38 8 317 288 251 137 123 126 131 129 125 118 117 116 103 102 109 107 106 109 104 107 116 121 128 126 126 128 134 146 150 145 141 137 133 130 125 123 124 124 125 125 122 118 116 116 116 118 118 119 121 125 131 135 138 138 138 140 138 134 133 137 138 136 137 136 137 136 131 131 132 129 129 129 128 125 122 122 121 122 120 119 119 121 123 123 121 117 114 112
124 346 16 37 57 42 96 95 296 294 286 256 129 127 129 130 122 113 105 100 103 103 109 111 106 110 110 104 111 122 128 129 126 128 131 136 146 138 130 131 128 123 121 121 123 124 124 123 121 118 115 113 112 113 116 117 118 121 126 131 133 136 135 136 137 136 133 131 133 134 134 136 136 137 136 130 131 133 130 129 130 130 128 126 124 122 122 120 120 120 122 123 121 118 115 114 112
87 341 336 42 99 30 133 129 166 278 293 169 134 123 130 136 125 119 107 105 112 116 120 119 119 118 109 105 120 128 129 128 128 129 129 134 141 130 122 121 120 118 118 120 123 124 123 122 119 117 114 110 109 110 114 116 118 121 126 130 130 132 131 131 132 133 132 132 132 131 133 135 135 136 134 132 132 132 130 130 129 130 129 128 126 123 123 122 121 122 121 120 117 114 113 114 113
148 181 207 168 145 126 110 119 179 269 293 137 132 125 136 145 137 149 132 125 128 126 121 122 127 122 113 120 126 131 130 130 129 127 131 135 138 130 115 113 115 117 118 120 121 122 122 120 119 117 113 110 111 112 113 114 114 118 123 127 128 128 128 128 130 132 132 132 131 131 133 133 133 135 133 132 132 131 129 128 126 123 123 123 125 124 123 123 122 122 119 116 113 112 112 112 112
173 167 158 215 69 92 121 137 197 196 212 141 114 124 139 151 148 167 142 124 122 124 128 130 132 122 121 129 129 135 134 134 133 132 137 137 141 134 115 112 113 114 115 116 117 119 118 117 116 113 111 112 116 116 115 113 112 116 120 123 126 126 126 128 129 129 129 129 129 129 130 129 130 133 131 130 132 132 129 127 123 119 119 118 120 122 123 123 122 119 116 113 111 109 108 108 109
178 166 112 317 74 119 163 167 181 155 203 287 101 113 123 154 157 165 127 113 121 130 135 136 134 125 134 139 136 142 139 137 139 141 139 134 139 133 118 114 110 110 112 114 115 117 116 116 114 111 111 111 114 115 115 113 112 115 118 121 123 124 125 126 127 126 125 126 125 126 127 126 127 129 128 130 134 132 129 126 123 121 119 117 117 118 120 121 119 116 114 112 110 108 108 108 105
168 175 91 335 127 145 193 164 158 151 206 283 157 116 114 169 175 147 128 127 135 137 139 140 140 136 140 139 139 143 140 138 137 137 136 131 133 127 118 114 110 110 111 115 116 117 118 117 114 111 110 109 110 112 114 113 111 113 115 117 118 120 123 124 125 124 124 125 124 123 124 123 123 125 127 131 134 132 130 126 123 121 117 115 115 115 116 117 116 115 113 112 109 107 108 107 102
147 161 98 175 197 191 188 168 163 151 172 221 183 145 126 189 191 158 148 136 138 143 146 144 139 136 136 137 141 141 138 138 136 134 132 130 130 126 121 116 116 116 115 118 116 118 122 118 113 110 110 110 112 114 115 114 113 115 114 116 117 118 121 122 123 124 124 124 123 123 124 123 124 127 130 133 134 132 129 126 125 121 117 115 115 115 115 115 115 114 113 110 108 109 109 105 100
133 74 174 178 189 210 183 165 183 143 149 183 184 176 145 169 182 168 158 120 132 139 142 140 131 129 132 135 139 140 139 140 138 136 132 132 132 127 125 123 122 121 120 121 118 123 124 119 115 112 113 114 117 117 116 115 116 119 118 118 119 120 122 122 124 123 123 122 123 126 127 127 129 131 132 131 130 129 127 126 126 123 122 120 118 115 114 114 114 111 108 107 106 107 108 105 103
145 179 207 216 189 189 150 154 210 171 153 162 163 174 156 160 176 168 148 131 141 134 131 130 121 123 131 136 140 141 142 141 140 139 135 135 135 131 132 131 128 124 123 124 124 127 125 121 118 115 116 116 117 118 117 117 120 122 122 122 121 122 124 124 125 123 123 125 127 129 129 130 130 130 130 129 126 126 127 126 125 123 122 120 116 113 112 110 107 104 101 103 104 101 101 103 105
181 163 171 249 208 164 148 163 211 197 153 145 144 173 171 164 173 169 164 159 155 129 126 126 121 129 135 138 142 143 143 142 142 144 141 139 139 140 140 135 132 126 123 127 129 129 127 123 120 119 117 116 118 119 120 121 123 124 123 124 124 123 125 126 127 127 129 130 131 130 130 131 130 130 130 129 127 127 128 126 124 121 117 115 112 110 108 104 101 100 101 104 104 99 95 95 98
161 145 215 201 236 196 160 174 197 176 152 146 151 171 178 171 175 177 168 150 122 123 129 132 132 137 138 140 145 144 145 144 144 147 147 143 143 149 146 136 133 129 125 128 132 130 130 127 124 122 117 118 120 120 121 122 124 124 125 127 125 125 128 130 130 132 133 132 132 130 130 131 131 132 130 128 126 124 123 121 119 115 111 108 107 106 105 104 102 99 100 101 101 101 99 96 92
74 1 42 91 30 33 165 180 174 161 151 143 151 162 173 171 174 179 170 126 119 130 133 136 138 140 142 145 145 144 146 147 147 147 148 145 143 151 148 138 136 135 132 131 134 134 133 131 127 124 120 122 124 121 121 123 124 123 125 128 127 127 131 133 133 133 133 132 133 131 130 130 130 129 126 124 122 119 118 115 114 111 108 107 105 103 103 103 103 99 94 88 95 101 96 95 91
83 349 28 71 67 95 179 195 133 147 144 137 156 163 168 164 165 176 165 127 133 134 136 139 140 143 145 146 145 147 149 149 149 147 149 145 143 151 150 143 143 141 138 136 137 138 137 132 128 125 122 123 125 125 126 125 124 123 125 126 125 126 131 132 131 132 132 131 132 131 128 126 125 123 122 122 121 120 116 112 111 110 108 108 107 106 105 102 101 101 94 88 88 85 80 86 91
81 23 69 101 66 83 153 183 109 133 138 147 157 155 171 154 149 169 139 129 135 134 139 140 141 145 147 147 147 149 149 149 149 148 149 145 143 149 148 142 143 141 140 140 140 140 139 135 130 128 125 125 125 128 130 128 126 127 127 127 124 124 128 129 129 130 129 130 129 127 124 123 123 123 122 121 121 119 114 111 111 109 109 110 109 110 109 106 103 99 97 103 92 77 84 95 105
94 158 146 99 56 83 126 132 63 94 123 139 131 148 214 156 140 156 128 130 133 134 138 141 145 148 149 150 149 150 149 149 149 147 147 145 143 143 146 145 143 143 142 142 143 141 140 137 134 132 131 131 129 129 131 131 129 130 129 126 125 126 126 124 125 127 127 128 126 123 122 122 123 124 122 120 117 115 111 112 112 110 109 108 105 104 105 106 105 98 96 113 110 83 84 95 118
114 115 103 90 78 94 88 34 26 34 91 131 123 146 256 162 139 147 140 134 131 135 139 144 150 151 153 153 153 153 148 149 149 147 146 144 142 142 147 150 145 143 142 143 141 141 141 138 138 135 133 134 131 129 130 131 130 130 129 126 126 127 125 122 123 125 125 124 121 120 121 121 122 120 117 114 111 111 111 113 114 112 108 105 104 102 100 104 107 109 112 124 144 136 104 103 123
116 110 99 92 80 79 74 54 41 36 76 120 119 117 282 189 144 150 155 139 132 137 142 148 153 154 157 156 156 153 148 151 150 148 149 145 145 147 149 152 149 141 141 144 141 141 141 140 141 137 134 133 131 131 131 131 131 131 131 129 128 128 127 125 125 126 127 125 122 119 119 121 119 116 112 110 108 109 112 113 114 114 111 107 107 101 91 102 120 130 136 136 148 156 144 130 131
122 115 94 93 91 67 70 64 75 78 68 92 104 119 209 231 153 163 161 142 135 141 146 153 157 157 158 157 156 151 146 149 149 149 151 148 149 151 150 152 155 146 142 144 141 141 143 142 142 140 140 137 134 135 135 134 134 134 135 133 131 132 131 130 130 130 130 127 123 117 118 121 117 116 111 107 109 110 113 117 117 117 113 107 102 94 90 113 132 136 139 139 147 152 150 145 145
121 113 96 121 131 90 58 40 88 98 56 97 108 112 221 255 147 165 162 145 139 145 152 156 159 157 156 157 154 149 147 150 151 152 152 150 152 151 149 151 157 155 147 145 144 143 144 145 143 141 143 141 138 138 135 134 134 135 137 135 135 139 137 134 136 136 133 130 126 124 124 120 111 112 111 105 108 111 118 121 119 118 113 114 115 106 111 122 124 129 135 128 139 147 144 147 154
116 105 102 131 128 80 41 44 89 94 104 171 174 144 308 178 155 169 164 147 143 150 155 156 156 154 154 157 153 149 152 154 153 154 154 154 152 150 149 150 155 158 152 147 148 148 145 145 145 142 142 141 139 136 133 132 132 133 133 134 137 143 143 140 142 141 139 136 132 132 131 123 116 123 122 115 110 107 115 115 113 119 119 126 134 126 124 128 123 122 125 122 133 141 141 143 141
123 109 103 102 90 4 3 21 77 105 178 226 207 151 271 260 181 181 163 148 148 154 155 153 152 149 153 157 152 149 153 155 155 154 152 153 150 151 152 150 157 161 155 148 148 150 149 149 149 146 143 142 137 132 133 133 134 135 131 133 137 141 142 140 141 142 144 143 139 139 139 141 145 146 134 127 126 111 113 119 125 133 131 132 133 125 124 134 133 119 113 115 125 135 143 141 132
138 116 107 36 81 117 325 297 191 150 193 293 12 137 217 275 229 211 160 150 154 156 152 152 148 147 156 160 151 149 156 156 153 152 155 156 152 154 155 155 164 162 153 151 152 154 153 155 154 150 149 143 134 132 135 135 136 137 133 132 132 134 136 135 138 141 144 145 145 148 151 152 151 148 139 135 138 127 120 130 131 128 129 127 117 113 114 124 128 114 106 111 118 129 143 143 138
265 131 134 141 141 158 246 236 232 229 143 41 25 121 170 278 233 223 170 157 164 159 152 152 147 149 160 161 151 154 166 160 152 155 160 157 152 157 159 159 163 154 153 159 158 157 157 157 155 153 153 143 136 140 141 139 137 135 132 126 121 123 122 123 133 141 146 147 148 151 152 152 149 146 144 140 140 135 124 128 125 119 125 119 105 108 106 105 112 111 113 119 118 120 133 144 147
237 158 134 161 161 157 160 163 222 213 141 91 32 86 164 212 213 219 194 174 178 165 156 156 149 152 165 160 152 164 173 161 154 157 160 155 154 162 162 159 160 154 161 166 159 157 159 161 159 158 157 148 146 150 150 151 146 137 134 128 127 127 122 125 132 139 147 153 156 154 150 152 149 144 144 146 144 138 126 120 116 118 124 117 109 113 108 108 114 114 117 120 117 112 120 135 144
184 180 153 153 162 166 161 115 216 202 162 136 91 52 254 176 200 211 204 193 199 186 164 158 151 153 167 162 156 174 175 159 157 158 157 154 155 164 160 158 161 159 164 165 160 162 164 165 165 164 163 157 155 156 159 159 148 141 142 140 142 145 148 155 156 154 157 155 157 155 150 151 149 146 150 150 143 136 130 121 114 121 130 124 112 112 111 116 117 115 120 122 123 118 114 118 123
175 165 146 140 152 161 150 130 195 189 168 162 148 151 225 192 201 195 206 212 215 218 172 154 152 156 171 165 159 178 173 156 157 157 155 154 156 160 157 157 159 160 165 163 164 169 167 167 169 172 171 165 162 162 163 156 145 147 151 149 153 157 162 170 170 169 164 151 156 159 153 153 154 155 155 149 143 143 141 135 130 129 134 129 109 105 105 108 111 116 119 117 124 125 116 116 107
160 141 139 145 142 134 144 161 188 167 151 202 166 135 166 210 226 184 206 223 221 242 197 159 155 158 175 169 159 174 167 154 158 159 158 156 159 160 157 159 159 162 167 166 167 170 169 172 177 178 173 170 169 167 163 153 148 156 158 155 160 165 167 174 178 180 173 153 159 165 158 159 162 164 166 163 158 155 153 142 137 137 135 124 104 104 106 110 115 114 114 114 122 123 120 127 108
154 151 155 141 129 122 135 148 164 161 151 140 113 86 178 230 270 185 217 265 255 260 236 178 162 161 179 169 158 170 162 156 162 160 158 159 163 166 162 162 164 168 171 169 169 169 175 180 184 182 172 170 172 169 164 156 154 162 160 156 164 172 169 171 179 183 181 169 167 171 167 167 168 171 176 179 172 162 156 143 138 144 142 125 103 109 114 114 113 111 118 124 123 121 128 136 117
159 169 167 140 130 109 97 112 133 158 151 119 132 157 251 311 6 7 8 345 294 280 305 245 182 169 183 169 157 170 163 160 165 160 159 160 161 165 163 165 170 173 173 174 173 173 180 186 189 184 171 172 174 169 167 163 160 161 158 158 167 178 172 170 179 182 187 187 179 177 174 171 171 171 173 174 172 164 157 146 139 140 142 137 123 124 126 118 111 113 121 125 124 122 125 132 121
170 184 165 139 154 138 111 130 132 121 99 129 148 155 289 354 29 356 309 285 276 272 293 286 221 180 188 172 160 171 167 164 168 162 162 162 159 162 164 169 174 174 174 177 178 179 184 189 191 182 172 175 174 171 171 168 160 156 160 169 173 178 173 169 173 176 187 188 183 181 174 171 170 167 167 167 166 164 159 150 141 136 135 137 133 130 127 116 109 112 116 122 128 123 114 118 124
190 204 178 147 168 158 129 141 135 97 59 124 131 117 62 189 183 260 250 251 269 272 279 278 238 196 195 177 165 172 171 167 171 168 165 166 163 165 169 173 176 177 178 178 180 183 185 187 187 177 173 175 175 174 172 166 161 159 167 180 176 173 174 173 170 168 175 178 180 180 174 173 169 166 167 167 166 164 163 156 144 140 133 130 131 129 119 110 112 113 112 134 142 132 123 130 134
220 236 195 158 162 136 121 135 136 107 346 189 147 114 169 181 193 206 217 234 249 261 269 268 236 207 206 190 174 176 173 169 174 173 169 168 167 169 171 175 176 178 182 181 181 185 184 185 185 176 175 176 176 177 173 168 169 166 171 178 173 171 178 179 172 169 169 171 177 176 173 175 170 168 171 173 171 166 165 157 147 144 141 138 134 135 130 124 128 124 129 159 157 147 142 149 146
252 257 165 146 141 126 135 146 149 137 179 197 175 142 153 187 202 191 182 208 225 242 258 260 240 216 217 209 185 181 177 172 175 177 174 169 169 172 173 175 176 179 185 182 180 187 187 186 186 180 179 179 177 179 177 176 176 173 174 178 176 176 183 181 173 176 177 175 176 170 172 177 173 171 177 180 171 169 170 160 157 152 147 147 140 140 142 137 138 139 152 172 165 160 156 155 152
266 300 111 130 136 136 153 159 155 152 110 138 182 134 120 211 212 172 168 189 216 232 243 246 239 225 226 219 190 184 182 175 177 181 177 172 171 174 174 176 177 180 187 185 183 189 189 187 186 181 182 183 180 182 184 181 179 177 178 181 182 181 183 181 178 184 188 183 181 174 173 176 173 173 181 185 171 170 177 168 169 163 151 151 145 140 147 149 156 155 153 172 172 170 169 168 162
266 310 104 137 152 150 162 162 139 142 109 111 206 152 107 231 198 153 159 176 204 219 223 223 227 221 222 221 190 183 186 180 180 183 181 177 176 176 176 178 178 180 187 190 190 192 189 188 185 181 185 187 183 186 188 184 181 181 178 179 183 182 182 181 179 183 184 182 184 182 176 173 176 181 183 186 177 173 179 176 175 170 161 165 158 149 157 161 163 160 153 170 176 174 176 177 176
263 273 142 147 156 154 161 153 133 144 122 166 194 183 156 185 178 155 160 185 202 210 213 211 215 212 214 219 195 183 189 187 182 183 183 180 178 177 179 181 180 180 185 190 193 194 191 189 185 184 189 188 186 189 189 185 184 185 183 183 185 185 184 182 179 181 180 176 182 184 177 174 184 190 184 185 186 180 180 179 175 172 170 175 171 163 171 173 165 169 165 168 175 175 176 179 179
251 252 149 142 160 153 150 142 138 135 5 195 183 187 188 153 196 176 178 205 202 195 197 203 210 208 207 214 203 186 188 189 185 186 185 182 179 178 179 183 181 179 182 188 192 194 193 191 186 187 190 188 188 191 189 187 187 186 188 189 187 184 185 183 181 185 183 175 181 186 179 179 189 193 188 188 190 187 184 180 179 179 175 175 175 174 182 182 174 182 178 168 172 173 176 184 187
237 144 88 184 258 150 130 150 151 130 319 188 170 180 196 247 232 202 201 212 197 187 191 192 200 205 204 207 207 195 187 186 187 187 184 182 182 182 180 184 186 182 182 187 191 195 194 192 189 189 191 189 188 191 189 189 190 188 191 193 185 178 187 191 184 187 190 182 183 188 182 186 194 192 189 187 188 191 188 185 184 183 180 183 183 182 192 193 181 187 185 173 177 177 177 185 191
238 81 77 99 338 317 136 159 156 105 18 159 158 168 205 254 240 213 207 207 197 190 189 184 188 199 203 202 205 202 189 184 186 187 185 182 183 184 183 187 190 185 183 187 191 195 195 195 193 191 191 189 188 191 191 191 193 192 194 197 186 178 189 201 193 190 195 190 188 192 188 191 198 194 188 184 188 194 192 190 189 186 185 191 193 191 198 204 199 198 191 183 190 187 184 185 184
223 115 107 121 118 225 215 181 145 107 116 142 150 165 217 276 248 215 209 209 203 194 188 184 184 193 201 200 202 205 193 184 187 190 189 186 184 184 185 189 190 183 182 188 192 194 196 196 195 192 192 190 188 191 192 193 195 194 196 199 189 182 190 201 199 195 197 194 194 199 195 193 198 199 193 188 193 196 192 193 193 194 196 195 197 200 200 205 211 209 203 199 197 193 192 189 185
243 137 120 164 187 187 204 190 153 125 133 133 142 180 204 179 245 232 205 202 199 192 187 182 180 189 199 201 204 209 201 188 188 192 192 189 186 186 186 188 189 185 185 189 192 195 196 195 194 191 191 190 189 192 193 195 196 195 196 198 192 189 193 199 199 196 193 192 196 200 197 194 196 201 201 198 203 204 196 198 200 198 201 198 197 204 204 205 211 214 216 218 209 203 198 193 190
251 140 122 207 232 216 219 193 164 136 129 147 166 211 45 158 256 271 156 173 179 179 179 175 175 183 192 202 208 213 210 196 191 192 192 190 189 188 186 186 189 189 187 188 191 195 197 196 194 192 192 191 190 193 194 195 197 196 196 197 194 192 194 198 198 195 191 193 198 199 197 195 193 199 206 200 202 206 201 202 202 196 199 202 200 206 211 211 212 216 218 218 216 212 205 200 200
285 126 167 214 217 238 267 213 180 140 127 143 203 55 45 145 253 87 130 147 158 166 168 170 176 180 187 200 206 210 211 204 197 195 193 192 191 189 188 186 187 189 189 188 192 198 199 197 195 194 193 192 192 194 195 196 197 197 197 197 195 194 196 197 197 196 195 196 199 199 200 199 191 193 204 201 198 204 205 204 202 197 201 204 204 208 213 214 215 218 217 216 217 215 210 207 208
230 114 237 234 210 242 257 89 306 165 127 8 345 106 167 196 212 172 164 159 158 164 166 170 179 184 191 202 204 205 207 206 205 200 195 193 190 189 190 188 187 190 192 191 195 200 201 199 197 197 195 193 193 194 195 197 198 198 200 200 198 198 198 198 198 199 200 198 198 198 200 203 198 191 199 207 207 207 207 206 204 203 205 203 205 211 214 215 217 217 214 213 214 212 213 211 206
235 264 316 352 175 233 214 128 229 225 123 144 257 229 209 212 203 179 179 179 167 165 167 172 182 188 195 203 206 205 207 209 208 199 195 195 190 188 190 188 187 191 193 194 196 198 197 197 198 199 199 197 195 195 196 198 200 200 201 203 203 202 201 202 202 202 203 202 202 200 199 203 204 199 198 207 215 216 213 209 206 207 205 201 204 211 214 214 216 214 209 212 217 213 210 210 206
260 292 307 304 176 193 174 174 183 153 146 166 187 235 241 234 214 188 184 185 171 166 170 177 186 191 195 201 206 210 211 213 209 196 193 194 191 190 190 187 187 189 191 195 196 195 194 195 198 201 201 199 198 199 199 199 201 202 202 204 206 204 204 203 200 202 205 204 206 207 203 203 206 208 205 205 214 223 221 213 210 211 209 204 206 211 212 209 212 215 209 214 222 213 203 203 202
225 267 283 268 267 176 169 220 191 157 174 177 154 196 258 277 248 193 179 176 170 171 175 178 184 189 194 198 202 206 210 213 210 198 191 193 193 190 189 188 186 187 191 194 194 192 192 193 198 203 203 201 201 202 202 201 202 203 204 204 205 206 206 201 196 203 207 205 208 211 207 204 207 212 211 207 214 221 220 215 212 214 214 208 205 208 208 204 208 216 217 222 225 210 204 203 199
194 156 218 240 250 224 195 269 242 179 170 187 155 147 290 329 1 63 126 140 148 162 168 175 182 187 192 196 199 202 206 209 209 203 191 191 192 189 189 190 187 186 190 192 191 189 190 193 199 204 203 202 201 201 203 204 204 204 205 205 205 207 208 201 196 204 210 209 210 207 207 212 214 214 210 207 213 215 215 216 213 210 213 210 208 215 221 210 205 212 219 228 226 208 204 205 201